| time (UTC) | temp F | wind direction | speed MPH | gust MPH | rain 1hr in | rain 24hr in | rain mn in | humidity % | barometer mb |
| 20260505002705 | 52 | 15 | 6.0 | 22.0 | 0.00 | 0.00 | 0.00 | 34 | 1003.8 |
| 20260505002205 | 52 | 10 | 4.0 | 16.0 | 0.00 | 0.00 | 0.00 | 33 | 1003.8 |
| 20260505001706 | 52 | 16 | 5.0 | 16.0 | 0.00 | 0.00 | 0.00 | 33 | 1003.6 |
| 20260505001206 | 52 | 18 | 4.0 | 16.0 | 0.00 | 0.00 | 0.00 | 33 | 1003.5 |
| 20260505000205 | 53 | 16 | 7.0 | 23.0 | 0.00 | 0.00 | 0.00 | 33 | 1003.3 |
| 20260504235705 | 53 | 357 | 6.0 | 23.0 | 0.00 | 0.00 | 0.00 | 33 | 1003.2 |
| 20260504235205 | 54 | 26 | 3.0 | 12.0 | 0.00 | 0.00 | 0.00 | 33 | 1003.1 |
| 20260504234705 | 54 | 355 | 3.0 | 15.0 | 0.00 | 0.00 | 0.00 | 33 | 1003.1 |
| 20260504234205 | 54 | 6 | 3.0 | 15.0 | 0.00 | 0.00 | 0.00 | 34 | 1003.1 |
| 20260504233705 | 53 | 28 | 5.0 | 15.0 | 0.00 | 0.00 | 0.00 | 34 | 1003.1 |
| 20260504233205 | 54 | 31 | 5.0 | 15.0 | 0.00 | 0.00 | 0.00 | 33 | 1003.0 |
| 20260504232706 | 54 | 9 | 3.0 | 15.0 | 0.00 | 0.00 | 0.00 | 33 | 1003.1 |
| 20260504232206 | 54 | 44 | 2.0 | 14.0 | 0.00 | 0.00 | 0.00 | 33 | 1002.9 |
| 20260504231705 | 54 | 355 | 5.0 | 18.0 | 0.00 | 0.00 | 0.00 | 33 | 1002.9 |
| 20260504231205 | 54 | 11 | 6.0 | 18.0 | 0.00 | 0.00 | 0.00 | 32 | 1002.8 |
| 20260504230706 | 55 | 25 | 1.0 | 14.0 | 0.00 | 0.00 | 0.00 | 33 | 1002.7 |
| 20260504225705 | 54 | 358 | 5.0 | 16.0 | 0.00 | 0.00 | 0.00 | 33 | 1002.7 |
| 20260504225205 | 54 | 18 | 5.0 | 18.0 | 0.00 | 0.00 | 0.00 | 33 | 1002.7 |
| 20260504224705 | 55 | 353 | 6.0 | 20.0 | 0.00 | 0.00 | 0.00 | 33 | 1002.6 |
| 20260504224205 | 55 | 358 | 6.0 | 20.0 | 0.00 | 0.00 | 0.00 | 33 | 1002.6 |
| 20260504223706 | 55 | 29 | 6.0 | 20.0 | 0.00 | 0.00 | 0.00 | 33 | 1002.4 |
| 20260504223206 | 55 | 13 | 6.0 | 18.0 | 0.00 | 0.00 | 0.00 | 33 | 1002.4 |
| 20260504222705 | 56 | 2 | 7.0 | 18.0 | 0.00 | 0.00 | 0.00 | 33 | 1002.3 |
| 20260504222205 | 56 | 21 | 1.0 | 18.0 | 0.00 | 0.00 | 0.00 | 33 | 1002.2 |
| 20260504221705 | 56 | 355 | 8.0 | 18.0 | 0.00 | 0.00 | 0.00 | 33 | 1002.1 |
| 20260504221205 | 57 | 3 | 9.0 | 18.0 | 0.00 | 0.00 | 0.00 | 33 | 1002.0 |
| 20260504220706 | 57 | 280 | 1.0 | 21.0 | 0.00 | 0.00 | 0.00 | 36 | 1001.8 |
| 20260504220205 | 57 | 47 | 5.0 | 21.0 | 0.00 | 0.00 | 0.00 | 34 | 1001.8 |
| 20260504215705 | 57 | 354 | 3.0 | 21.0 | 0.00 | 0.00 | 0.00 | 33 | 1001.7 |
| 20260504215206 | 57 | 13 | 4.0 | 20.0 | 0.00 | 0.00 | 0.00 | 33 | 1001.6 |
| 20260504214705 | 58 | 9 | 2.0 | 22.0 | 0.00 | 0.00 | 0.00 | 34 | 1001.7 |
| 20260504214205 | 58 | 6 | 8.0 | 22.0 | 0.00 | 0.00 | 0.00 | 32 | 1001.5 |
| 20260504213705 | 58 | 60 | 2.0 | 20.0 | 0.00 | 0.00 | 0.00 | 33 | 1001.4 |
| 20260504213206 | 58 | 358 | 5.0 | 20.0 | 0.00 | 0.00 | 0.00 | 32 | 1001.4 |
| 20260504212705 | 59 | 21 | 6.0 | 20.0 | 0.00 | 0.00 | 0.00 | 32 | 1001.4 |
| 20260504211205 | 60 | 349 | 5.0 | 20.0 | 0.00 | 0.00 | 0.00 | 31 | 1001.2 |
| 20260504210705 | 61 | 33 | 5.0 | 20.0 | 0.00 | 0.00 | 0.00 | 30 | 1001.0 |
| 20260504210206 | 60 | 28 | 8.0 | 20.0 | 0.00 | 0.00 | 0.00 | 30 | 1000.9 |
| 20260504205205 | 60 | 355 | 5.0 | 20.0 | 0.00 | 0.00 | 0.00 | 31 | 1001.0 |
| 20260504204705 | 60 | 17 | 5.0 | 16.0 | 0.00 | 0.00 | 0.00 | 31 | 1000.9 |
| 20260504204205 | 60 | 10 | 1.0 | 20.0 | 0.00 | 0.00 | 0.00 | 33 | 1000.9 |
| 20260504203205 | 60 | 3 | 5.0 | 26.0 | 0.00 | 0.00 | 0.00 | 32 | 1000.8 |
| 20260504202705 | 60 | 8 | 5.0 | 26.0 | 0.00 | 0.00 | 0.00 | 32 | 1000.8 |
| 20260504201705 | 61 | 25 | 4.0 | 17.0 | 0.00 | 0.00 | 0.00 | 32 | 1000.6 |
| 20260504201205 | 61 | 345 | 2.0 | 18.0 | 0.00 | 0.00 | 0.00 | 31 | 1000.6 |
| 20260504195705 | 61 | 12 | 6.0 | 21.0 | 0.00 | 0.00 | 0.00 | 31 | 1000.5 |
| 20260504195206 | 61 | 348 | 6.0 | 20.0 | 0.00 | 0.00 | 0.00 | 32 | 1000.5 |
| 20260504194706 | 61 | 17 | 5.0 | 20.0 | 0.00 | 0.00 | 0.00 | 32 | 1000.4 |
| 20260504193707 | 61 | 336 | 5.0 | 17.0 | 0.00 | 0.00 | 0.00 | 34 | 1000.4 |
| 20260504193205 | 61 | 10 | 7.0 | 20.0 | 0.00 | 0.00 | 0.00 | 33 | 1000.3 |
| 20260504192705 | 61 | 2 | 6.0 | 22.0 | 0.00 | 0.00 | 0.00 | 33 | 1000.2 |
| 20260504192205 | 61 | 14 | 6.0 | 22.0 | 0.00 | 0.00 | 0.00 | 33 | 1000.3 |
| 20260504191706 | 61 | 352 | 4.0 | 23.0 | 0.00 | 0.00 | 0.00 | 34 | 1000.1 |
| 20260504191205 | 62 | 12 | 6.0 | 23.0 | 0.00 | 0.00 | 0.00 | 32 | 1000.0 |
| 20260504190705 | 62 | 14 | 7.0 | 23.0 | 0.00 | 0.00 | 0.00 | 31 | 1000.1 |
| 20260504185706 | 63 | 357 | 7.0 | 22.0 | 0.00 | 0.00 | 0.00 | 32 | 999.9 |
| 20260504185205 | 62 | 0 | 4.0 | 22.0 | 0.00 | 0.00 | 0.00 | 32 | 999.7 |
| 20260504184705 | 62 | 52 | 5.0 | 15.0 | 0.00 | 0.00 | 0.00 | 33 | 999.6 |
| 20260504184205 | 62 | 348 | 4.0 | 18.0 | 0.00 | 0.00 | 0.00 | 34 | 999.6 |
| 20260504183705 | 61 | 355 | 5.0 | 18.0 | 0.00 | 0.00 | 0.00 | 33 | 999.6 |
| 20260504183205 | 62 | 22 | 5.0 | 18.0 | 0.00 | 0.00 | 0.00 | 33 | 999.3 |
| 20260504182705 | 61 | 355 | 6.0 | 22.0 | 0.00 | 0.00 | 0.00 | 33 | 999.4 |
| 20260504182206 | 61 | 355 | 9.0 | 22.0 | 0.00 | 0.00 | 0.00 | 32 | 999.4 |
| 20260504181706 | 61 | 17 | 7.0 | 22.0 | 0.00 | 0.00 | 0.00 | 32 | 999.3 |
| 20260504181205 | 62 | 9 | 5.0 | 22.0 | 0.00 | 0.00 | 0.00 | 33 | 999.2 |
| 20260504180705 | 62 | 24 | 4.0 | 14.0 | 0.00 | 0.00 | 0.00 | 32 | 999.0 |
| 20260504180206 | 62 | 325 | 3.0 | 20.0 | 0.00 | 0.00 | 0.00 | 32 | 998.9 |
| 20260504175706 | 62 | 339 | 4.0 | 20.0 | 0.00 | 0.00 | 0.00 | 31 | 999.0 |
| 20260504175206 | 62 | 5 | 7.0 | 20.0 | 0.00 | 0.00 | 0.00 | 31 | 998.9 |
| 20260504173703 | 62 | 346 | 2.0 | 20.0 | 0.00 | 0.00 | 0.00 | 32 | 998.8 |
| 20260504173204 | 62 | 355 | 6.0 | 21.0 | 0.00 | 0.00 | 0.00 | 31 | 998.7 |
| 20260504172703 | 62 | 334 | 2.0 | 21.0 | 0.00 | 0.00 | 0.00 | 32 | 998.8 |
| 20260504172203 | 62 | 351 | 6.0 | 23.0 | 0.00 | 0.00 | 0.00 | 32 | 998.8 |
| 20260504171704 | 62 | 351 | 2.0 | 23.0 | 0.00 | 0.00 | 0.00 | 36 | 998.7 |
| 20260504171203 | 62 | 20 | 3.0 | 20.0 | 0.00 | 0.00 | 0.00 | 34 | 998.7 |
| 20260504170703 | 62 | 15 | 3.0 | 18.0 | 0.00 | 0.00 | 0.00 | 37 | 998.5 |
| 20260504170203 | 61 | 303 | 2.0 | 17.0 | 0.00 | 0.00 | 0.00 | 39 | 998.5 |
| 20260504160203 | 60 | 344 | 5.0 | 13.0 | 0.00 | 0.00 | 0.00 | 37 | 998.2 |
| 20260504150703 | 59 | 315 | 3.0 | 17.0 | 0.00 | 0.00 | 0.00 | 39 | 997.9 |
| 20260504150203 | 59 | 5 | 6.0 | 17.0 | 0.00 | 0.00 | 0.00 | 37 | 997.9 |
| 20260504141203 | 58 | 12 | 8.0 | 23.0 | 0.00 | 0.00 | 0.00 | 36 | 997.8 |
| 20260504140204 | 58 | 11 | 7.0 | 21.0 | 0.00 | 0.00 | 0.00 | 37 | 997.7 |
| 20260504130703 | 58 | 16 | 3.0 | 17.0 | 0.00 | 0.00 | 0.00 | 44 | 996.9 |
| 20260504130203 | 58 | 355 | 5.0 | 12.0 | 0.00 | 0.00 | 0.00 | 45 | 996.8 |
| 20260504120203 | 57 | 319 | 3.0 | 14.0 | 0.00 | 0.00 | 0.00 | 43 | 996.1 |
| 20260504110704 | 54 | 324 | 5.0 | 13.0 | 0.00 | 0.00 | 0.00 | 45 | 995.4 |
| 20260504110203 | 54 | 271 | 2.0 | 9.0 | 0.00 | 0.00 | 0.00 | 46 | 995.4 |
| 20260504081702 | 53 | 263 | 2.0 | 8.0 | 0.00 | 0.00 | 0.00 | 44 | 997.5 |
| 20260504081202 | 53 | 307 | 1.0 | 7.0 | 0.00 | 0.00 | 0.00 | 44 | 997.6 |
| 20260504080702 | 54 | 323 | 1.0 | 7.0 | 0.00 | 0.00 | 0.00 | 43 | 997.6 |
| 20260504080202 | 54 | 225 | 2.0 | 8.0 | 0.00 | 0.00 | 0.00 | 43 | 997.8 |
| 20260504070203 | 55 | 233 | 1.0 | 7.0 | 0.00 | 0.00 | 0.00 | 40 | 998.7 |
| 20260504060202 | 56 | 293 | 2.0 | 6.0 | 0.00 | 0.00 | 0.00 | 37 | 1000.0 |
| 20260504050703 | 56 | 204 | 1.0 | 6.0 | 0.00 | 0.00 | 0.00 | 38 | 1001.0 |
| 20260504050203 | 56 | 210 | 1.0 | 5.0 | 0.00 | 0.00 | 0.00 | 39 | 1001.1 |
| 20260504045703 | 57 | 208 | 1.0 | 5.0 | 0.00 | 0.00 | 0.00 | 39 | 1001.2 |
| 20260504045203 | 57 | 204 | 1.0 | 3.0 | 0.00 | 0.00 | 0.00 | 38 | 1001.3 |
| 20260504044703 | 57 | 203 | 1.0 | 3.0 | 0.00 | 0.00 | 0.00 | 38 | 1001.4 |
| 20260504044203 | 57 | 211 | 0.0 | 3.0 | 0.00 | 0.00 | 0.00 | 38 | 1001.4 |
| 20260504043203 | 57 | 201 | 0.0 | 3.0 | 0.00 | 0.00 | 0.00 | 37 | 1001.7 |
| 20260504042703 | 57 | 235 | 1.0 | 3.0 | 0.00 | 0.00 | 0.00 | 36 | 1001.7 |
| 20260504042204 | 57 | 280 | 0.0 | 3.0 | 0.00 | 0.00 | 0.00 | 37 | 1001.8 |
| 20260504041202 | 57 | 204 | 0.0 | 2.0 | 0.00 | 0.00 | 0.00 | 36 | 1001.9 |
| 20260504040703 | 57 | 307 | 0.0 | 2.0 | 0.00 | 0.00 | 0.00 | 36 | 1002.0 |
| 20260504040203 | 57 | 317 | 0.0 | 0.0 | 0.00 | 0.00 | 0.00 | 36 | 1002.2 |
| 20260504035702 | 57 | 317 | 0.0 | 1.0 | 0.00 | 0.00 | 0.00 | 35 | 1002.3 |
| 20260504034703 | 57 | 317 | 0.0 | 3.0 | 0.00 | 0.00 | 0.00 | 35 | 1002.5 |
| 20260504034202 | 57 | 317 | 0.0 | 3.0 | 0.00 | 0.00 | 0.00 | 35 | 1002.6 |
| 20260504033703 | 57 | 317 | 0.0 | 3.0 | 0.00 | 0.00 | 0.00 | 35 | 1002.7 |
| 20260504033203 | 58 | 317 | 0.0 | 0.0 | 0.00 | 0.00 | 0.00 | 35 | 1002.8 |
| 20260504032702 | 58 | 317 | 0.0 | 0.0 | 0.00 | 0.00 | 0.00 | 34 | 1002.9 |
| 20260504032202 | 58 | 317 | 0.0 | 1.0 | 0.00 | 0.00 | 0.00 | 35 | 1003.0 |
| 20260504031703 | 58 | 317 | 0.0 | 1.0 | 0.00 | 0.00 | 0.00 | 34 | 1003.0 |
| 20260504031202 | 58 | 317 | 0.0 | 3.0 | 0.00 | 0.00 | 0.00 | 35 | 1003.0 |
| 20260504030703 | 58 | 317 | 0.0 | 3.0 | 0.00 | 0.00 | 0.00 | 35 | 1003.1 |
| 20260504030204 | 58 | 317 | 0.0 | 1.0 | 0.00 | 0.00 | 0.00 | 34 | 1003.0 |
| 20260504025703 | 58 | 317 | 0.0 | 0.0 | 0.00 | 0.00 | 0.00 | 33 | 1003.1 |
| 20260504025202 | 58 | 317 | 0.0 | 0.0 | 0.00 | 0.00 | 0.00 | 34 | 1003.1 |
| 20260504024203 | 58 | 317 | 0.0 | 0.0 | 0.00 | 0.00 | 0.00 | 33 | 1003.1 |
| 20260504022203 | 59 | 317 | 0.0 | 0.0 | 0.00 | 0.00 | 0.00 | 33 | 1003.3 |
| 20260504021703 | 60 | 317 | 0.0 | 0.0 | 0.00 | 0.00 | 0.00 | 32 | 1003.3 |
| 20260504021203 | 60 | 317 | 0.0 | 0.0 | 0.00 | 0.00 | 0.00 | 30 | 1003.4 |
| 20260504020703 | 60 | 317 | 0.0 | 0.0 | 0.00 | 0.00 | 0.00 | 30 | 1003.4 |
| 20260504020203 | 61 | 317 | 0.0 | 0.0 | 0.00 | 0.00 | 0.00 | 29 | 1003.4 |
| 20260504015203 | 61 | 317 | 0.0 | 2.0 | 0.00 | 0.00 | 0.00 | 28 | 1003.5 |
| 20260504014703 | 61 | 317 | 0.0 | 2.0 | 0.00 | 0.00 | 0.00 | 28 | 1003.4 |
| 20260504013703 | 62 | 317 | 0.0 | 3.0 | 0.00 | 0.00 | 0.00 | 28 | 1003.5 |
| 20260504013204 | 63 | 317 | 0.0 | 6.0 | 0.00 | 0.00 | 0.00 | 28 | 1003.6 |
| 20260504012703 | 63 | 358 | 1.0 | 6.0 | 0.00 | 0.00 | 0.00 | 28 | 1003.6 |
| 20260504012203 | 63 | 283 | 0.0 | 7.0 | 0.00 | 0.00 | 0.00 | 27 | 1003.6 |
| 20260504011703 | 64 | 301 | 1.0 | 7.0 | 0.00 | 0.00 | 0.00 | 27 | 1003.7 |
| 20260504011203 | 64 | 307 | 1.0 | 7.0 | 0.00 | 0.00 | 0.00 | 26 | 1003.6 |
| 20260504010703 | 64 | 273 | 1.0 | 5.0 | 0.00 | 0.00 | 0.00 | 27 | 1003.6 |
| 20260504010203 | 65 | 0 | 1.0 | 5.0 | 0.00 | 0.00 | 0.00 | 27 | 1003.6 |
| 20260504005703 | 65 | 0 | 0.0 | 5.0 | 0.00 | 0.00 | 0.00 | 26 | 1003.7 |
| 20260504005203 | 65 | 334 | 0.0 | 3.0 | 0.00 | 0.00 | 0.00 | 26 | 1003.7 |
| 20260504004703 | 65 | 241 | 0.0 | 2.0 | 0.00 | 0.00 | 0.00 | 25 | 1003.7 |
| 20260504004203 | 65 | 240 | 0.0 | 3.0 | 0.00 | 0.00 | 0.00 | 25 | 1003.7 |
| 20260504003703 | 66 | 246 | 0.0 | 3.0 | 0.00 | 0.00 | 0.00 | 24 | 1003.7 |
| 20260504003203 | 66 | 0 | 0.0 | 3.0 | 0.00 | 0.00 | 0.00 | 24 | 1003.8 |